SCP
0 -0 -0 -0 -0 -0 -0 -0 -0 -0 -0 -0 -0 -0 -0 -0 -0 -0 -0 -0 -0 -0 -0 -0 -0 -0 -0 -0 -0 0 0 0 0 0 0 0 0 -0 -0 0 -0 -0 -0 -0 0 0 0
0 0 -0 -0 -0 -0 -0 -0 -0 -0 -0 -0 -0 -0 -0 -0 -0 -0 -0 -0 -0 -0 -0 -0 -0 0 0 -0 -0 -0 0 0 -0 0 0 0 -0 -0 0 0 -0 -0 -0 0 0 0 0
-0 0 0 -0 -0 -0 0 -0 -0 -0 -0 -0 -0 -0 -0 -0 -0 -0 -0 -0 -0 -0 -0 0 0 0 0 -0 -0 -0 -0 0 -0 -0 0 0 0 -0 -0 0 0 -0 -0 0 0 -0 0
-0 -0 0 -0 -0 -0 -0 0 -0 -0 -0 -0 -0 -0 -0 -0 -0 -0 -0 -0 -0 -0 -0 -0 0 0 -0 -0 -0 -0 -0 -0 0 0 0 0 -0 -0 -0 0 0 -0 -0 0 -0 -0 0
-0 -0 -0 0 0 -0 -0 -0 -0 0 -0 -0 -0 -0 -0 -0 -0 -0 -0 -0 -0 -0 -0 0 0 0 -0 0 -0 -0 -0 -0 0 0 -0 0 0 -0 -0 -0 -0 0 -0 -0 -0 0 -0
0 -0 -0 -0 -0 0 0 -0 0 -0 -0 -0 -0 -0 -0 -0 -0 -0 -0 -0 0 0 0 0 0 0 -0 -0 -0 -0 -0 0 0 0 -0 -0 -0 -0 -0 -0 -0 -0 0 0 -0 -0 -0
-0 -0 -0 -0 -0 -0 -0 -0 -0 -0 0 0 0 0 -0 -0 -0 -0 0 0 0 0 0 0 0 0 0 -0 0 0 0 -0 0 -0 0 -0 0 0 0 0 0 -0 0 -0 0 0 0
-0 -0 -0 0 0 0 -0 -0 -0 0 0 0 0 0 0 0 -0 -0 0 0 0 0 -0 0 -0 -0 0 -0 0 0 -0 -0 -0 -0 -0 0 0 -0 -0 -0 -0 -0 -0 0 0 0 0
0 0 0 0 0 0 0 0 0 0 0 0 0 0 0 0 -0 0 0 0 0 0 0 -0 -0 -0 -0 0 -0 0 0 -0 -0 -0 -0 -0 -0 -0 -0 -0 0 -0 -0 0 -0 0 -0
0 0 0 0 0 0 0 0 0 0 0 0 0 0 0 0 0 0 0 0 0 0 0 0 0 0 -0 -0 -0 -0 0 0 0 -0 0 -0 0 0 -0 -0 -0 -0 -0 -0 -0 0 -0
0 0 0 0 0 0 0 0 0 0 0 0 0 0 0 0 0 0 0 0 0 0 0 0 0 0 0 0 0 -0 -0 0 -0 -0 -0 -0 0 0 0 -0 -0 -0 -0 -0 0 0 0
0 0 0 0 0 0 0 0 0 0 0 0 0 0 0 0 0 0 0 0 0 0 0 0 0 0 0 0 -0 0 0 -0 0 -0 -0 0 -0 0 0 0 -0 -0 0 0 0 0 -0
0 0 0 0 0 0 0 0 0 0 0 0 0 0 0 0 0 0 0 0 0 0 0 0 0 0 0 0 -0 0 0 0 0 0 0 0 0 0 0 -0 0 -0 0 0 0 0 0
0 0 0 0 0 0 0 0 0 0 0 0 0 0 0 0 0 0 0 0 0 0 0 0 0 0 0 0 0 0 0 0 0 0 0 0 0 -0 -0 0 -0 0 -0 0 0 0 0
0 0 0 0 0 0 0 0 0 0 0 0 0 0 0 0 0 0 0 0 0 0 0 0 0 0 0 0 -0 0 0 0 0 0 0 0 0 -0 -0 0 -0 0 0 -0 0 0 0
0 0 0 0 0 0 0 0 0 0 0 0 0 0 0 0 -0 0 0 0 0 0 0 0 0 0 0 0 0 0 0 0 0 0 0 -0 0 0 0 -0 0 -0 0 0 0 0 0
0 0 0 0 0 0 0 0 0 0 0 0 0 0 0 0 0 0 0 0 0 0 0 0 0 0 0 0 0 0 0 0 0 0 0 0 0 0 0 0 0 0 -0 -0 0 0 0
0 0 0 0 0 0 0 0 0 0 0 0 0 0 -0 0 0 0 0 0 0 0 0 0 0 0 0 0 0 0 0 0 0 0 0 0 0 0 -0 0 0 0 0 -0 0 0 0
0 0 0 0 0 0 0 0 0 0 0 0 0 0 -0 0 0 0 0 0 0 0 0 0 0 0 0 0 0 0 0 0 0 0 0 0 0 0 0 0 0 0 0 0 0 0 0
0 0 0 0 0 0 0 0 0 0 0 0 0 0 0 0 0 0 0 0 0 0 0 0 0 0 0 0 0 0 0 0 0 0 0 0 0 0 0 0 0 0 0 0 0 0 0
0 0 0 0 0 0 0 0 0 0 0 0 0 0 0 0 0 0 0 0 0 0 0 0 0 0 0 0 0 0 0 0 0 0 0 0 0 0 0 0 0 0 0 0 0 0 0
0 0 0 0 0 0 0 0 0 0 0 0 0 0 0 0 0 0 0 0 0 0 0 0 0 0 0 0 0 0 0 0 0 0 0 0 0 0 0 0 0 0 0 0 0 0 0
0 0 0 0 0 0 0 0 0 0 0 0 0 0 0 0 0 0 0 0 0 0 0 0 0 0 0 0 0 0 0 0 0 0 0 0 0 0 0 0 0 0 0 0 0 0 0
0 0 0 0 0 0 0 0 0 0 0 0 0 0 0 0 0 0 0 0 0 0 0 0 0 0 0 0 0 0 0 0 0 0 0 0 0 0 0 0 0 0 0 0 0 0 0
0 0 0 0 0 0 0 0 0 0 0 0 0 0 0 0 0 0 0 0 0 0 0 0 0 0 -0 0 0 0 0 0 0 0 0 0 0 0 0 0 0 0 0 0 0 0 0
0 0 0 0 -0 0 0 0 0 0 0 0 0 0 0 0 0 0 0 0 0 0 0 0 0 0 0 -0 -0 0 0 0 0 0 0 0 1 0 0 0 0 0 0 1 1 0 1
0 0 0 0 0 -0 -0 -0 -0 0 0 0 0 0 0 0 0 0 -0 0 0 0 0 0 0 0 0 0 -0 -0 0 0 0 0 0 0 0 0 0 0 0 0 1 0 1 1 1
0 0 0 0 0 -0 -0 0 0 0 0 0 0 0 0 0 0 -0 -0 -0 -0 -0 0 -0 0 0 0 0 0 -0 0 0 0 0 0 0 0 0 0 0 0 0 0 -0 1 1 1
0 0 0 0 0 -0 -0 0 0 0 0 0 0 0 0 0 0 -0 0 -0 -0 0 -0 -0 -0 0 0 0 0 0 0 0 0 0 0 0 0 0 0 0 0 0 2 1 1 1 1
Wind_Speed_500mb
51 51 50 48 46 45 46 45 43 39 39 40 40 40 39 39 40 41 44 44 42 41 40 38 37 37 35 23 53 36 26 24 28 33 48 48 50 47 40 36 44 33 41 48 13 15 13
52 51 49 49 49 48 46 48 48 48 47 45 44 42 42 41 42 42 43 44 46 42 40 40 35 36 29 37 17 21 25 25 24 33 46 49 45 46 47 43 43 43 28 26 16 17 20
56 56 55 54 52 51 49 46 46 48 47 47 49 49 45 44 46 46 43 44 46 45 41 38 34 33 28 61 19 15 18 26 24 32 45 47 47 43 49 40 50 52 38 16 19 26 16
55 56 57 58 60 60 60 57 51 47 47 47 48 49 48 46 48 50 49 45 45 43 42 38 30 25 28 37 31 38 32 34 31 34 37 41 43 49 49 45 51 43 38 31 37 34 23
52 52 52 54 57 60 61 60 58 55 53 52 50 49 48 48 47 47 47 46 46 41 39 37 19 13 30 20 39 40 40 41 35 35 37 38 43 50 48 35 36 42 34 42 40 25 31
55 54 52 53 55 57 58 61 62 60 57 54 55 53 51 48 47 48 43 39 40 40 31 24 24 17 49 37 30 31 33 39 38 36 39 42 39 30 37 35 33 40 39 37 34 36 35
55 57 61 61 62 62 63 63 62 64 61 58 56 57 52 49 44 43 39 26 20 11 15 32 22 33 26 28 35 31 27 37 41 41 35 47 29 40 50 49 43 45 40 44 29 21 34
55 58 57 56 58 61 64 63 65 64 60 60 59 60 57 48 40 28 19 14 26 24 34 50 72 67 69 26 27 39 31 36 42 38 40 38 48 49 47 50 51 53 52 47 28 38 40
54 55 55 55 58 60 62 56 60 63 64 63 60 60 59 47 28 9 24 35 24 27 25 46 75 79 82 63 57 50 48 48 33 45 46 46 44 46 49 52 54 53 51 45 41 37 46
58 56 55 55 57 60 66 66 65 63 61 61 62 60 57 57 9 16 19 13 17 24 13 23 41 55 68 72 68 70 62 61 42 46 47 48 49 49 54 57 55 52 48 52 48 26 26
55 54 55 55 57 59 61 64 68 67 62 58 56 54 56 32 40 30 15 22 27 16 14 5 37 14 35 65 14 71 76 68 54 51 42 48 52 55 54 62 58 52 51 50 48 41 39
51 50 50 53 56 55 57 62 68 65 60 57 56 50 50 31 29 24 21 30 17 13 22 16 24 26 39 50 52 36 65 70 64 54 53 51 51 55 55 51 58 52 47 48 44 38 35
52 52 53 53 53 53 59 62 62 63 63 64 58 51 41 44 34 9 9 15 13 22 17 28 34 33 44 44 54 33 47 51 44 49 49 51 53 50 50 52 52 57 46 32 35 33 33
55 52 52 52 53 56 60 62 60 62 66 68 61 56 41 36 32 16 20 16 32 25 54 29 25 41 44 45 50 49 42 43 53 49 36 42 41 53 46 57 49 54 54 33 41 35 38
53 51 50 53 58 61 58 56 57 59 66 72 65 51 49 33 37 27 32 30 22 41 34 36 45 37 46 51 49 50 52 46 50 56 47 38 50 40 60 46 53 54 52 55 52 44 35
57 56 56 56 55 51 51 55 54 57 62 63 64 57 46 27 29 40 29 57 37 52 47 42 45 44 52 51 55 52 53 54 50 55 52 49 39 42 46 52 58 59 37 46 41 51 49
54 54 55 53 51 53 52 52 52 53 56 52 46 31 37 8 35 38 35 47 54 85 80 60 57 56 56 50 55 57 56 49 55 51 52 49 44 40 46 53 52 37 44 48 42 40 34
53 53 52 51 51 51 52 52 50 48 51 35 37 18 15 14 30 31 36 55 65 62 81 59 57 63 60 58 53 55 59 55 53 42 52 53 35 38 52 50 56 58 58 54 34 43 38
53 53 54 52 51 51 48 45 43 42 36 32 32 48 54 48 31 31 46 59 61 58 59 64 63 60 52 60 54 58 54 53 58 55 50 40 42 32 48 47 49 60 56 49 52 43 42
56 56 56 55 52 49 47 44 40 35 31 22 19 12 35 43 63 48 46 52 54 68 52 59 47 57 61 56 56 55 54 59 46 45 16 16 35 53 36 43 36 51 60 56 52 36 43
58 58 57 55 52 50 47 43 35 33 30 20 14 16 36 20 37 17 33 45 42 51 52 48 32 38 38 42 52 53 56 59 52 52 28 31 33 42 56 57 50 50 58 58 53 52 45
58 56 55 53 52 50 46 42 37 31 26 23 13 22 30 49 58 45 24 38 41 50 37 38 23 45 40 39 30 33 42 49 48 51 39 45 33 36 47 51 55 48 55 56 59 58 54
58 58 57 54 52 49 44 40 34 29 30 19 28 38 20 28 36 31 34 41 34 45 45 44 36 34 35 32 54 65 68 71 56 43 45 40 33 32 41 50 47 48 51 44 46 48 50
60 59 56 55 52 47 41 38 33 30 34 32 32 24 10 12 28 31 44 43 33 47 30 37 50 9 43 44 61 68 64 56 48 50 50 40 40 31 33 37 48 34 38 48 45 37 39
60 60 56 52 51 43 37 35 33 33 33 39 38 29 14 8 28 35 50 36 45 53 54 42 55 44 28 20 14 26 25 39 42 48 38 30 36 28 29 34 29 38 35 23 18 27 31
57 56 52 48 44 39 32 33 32 31 25 31 39 41 23 9 21 48 33 41 32 33 29 41 46 45 11 10 7 5 8 21 31 31 23 32 9 18 26 35 47 39 13 13 7 17 19
60 53 46 42 36 32 29 30 29 30 25 30 38 29 27 11 37 44 35 31 28 22 18 40 28 13 19 13 11 7 13 23 22 36 21 22 17 25 25 29 29 14 8 11 21 4 14
50 45 38 36 31 26 25 27 29 29 23 25 30 20 37 20 45 51 55 53 48 35 16 18 19 18 17 24 20 15 21 18 24 35 20 15 19 22 22 23 30 29 36 36 8 7 12
43 39 34 30 29 26 24 30 23 17 22 23 29 20 26 41 39 50 47 57 60 53 49 34 16 18 12 7 1 8 14 10 23 24 34 26 28 21 24 21 18 16 22 16 16 15 30
Wind_Direction_500mb
8 7 6 4 0 357 354 350 346 342 337 332 327 324 321 318 314 308 305 303 302 300 300 300 302 301 305 270 257 257 245 261 265 213 205 215 224 229 241 241 253 235 194 234 196 148 212
3 1 1 3 1 358 354 351 348 344 339 336 331 326 324 320 315 309 304 301 299 297 298 298 298 296 294 264 265 223 253 256 220 203 209 215 223 226 242 246 254 251 240 260 246 214 213
356 355 355 356 356 354 353 349 345 343 338 333 330 327 324 321 317 312 308 303 297 295 293 293 295 288 263 248 258 217 233 220 205 208 212 218 226 231 235 254 252 264 270 224 253 260 180
352 350 349 347 347 348 348 347 346 342 338 333 328 324 322 321 317 315 313 308 299 293 289 287 285 274 257 268 260 241 230 224 224 216 219 221 224 240 245 245 257 258 257 254 223 203 182
347 346 343 340 339 338 339 340 341 340 339 336 331 326 323 326 318 313 310 310 304 294 283 280 277 242 268 264 223 228 223 222 219 223 222 221 222 224 237 249 247 243 244 234 251 178 165
342 341 340 338 335 334 333 333 334 333 333 334 331 329 327 327 324 319 315 309 303 291 280 266 223 255 251 229 215 219 213 212 218 210 214 215 221 226 221 227 231 233 230 234 215 205 185
338 338 338 339 337 334 332 331 330 329 329 330 330 326 326 325 326 325 324 331 314 303 227 231 215 218 274 217 225 197 198 204 212 207 207 204 213 215 217 219 230 248 237 231 226 193 207
338 335 334 333 331 330 331 328 327 327 326 325 328 328 326 325 326 323 326 321 329 308 297 258 255 249 249 222 201 205 211 205 211 208 206 209 221 223 218 213 228 244 256 252 222 190 210
336 335 334 337 339 341 342 334 330 329 329 328 326 329 329 326 326 357 311 296 288 317 288 279 240 234 227 232 240 225 214 208 213 217 207 225 217 224 222 218 217 235 244 253 256 195 196
332 333 331 332 332 335 340 343 341 337 330 328 328 329 332 330 325 287 319 323 328 317 279 266 217 231 220 222 234 228 222 214 222 225 227 228 236 212 226 221 220 227 233 252 265 159 214
328 330 330 329 328 329 336 338 339 336 332 328 328 326 325 333 306 295 302 312 313 296 281 109 182 217 198 199 226 212 215 220 227 224 233 231 228 234 213 224 222 232 230 237 255 263 196
322 322 324 325 326 326 328 331 333 331 329 326 325 325 319 321 287 309 316 310 309 239 243 245 149 183 184 201 214 169 193 216 222 227 230 240 232 228 236 216 229 229 239 248 244 252 255
323 320 319 321 322 322 323 325 329 330 328 326 321 317 306 295 270 290 289 255 225 231 236 229 182 192 208 195 212 178 188 201 211 212 223 228 236 235 224 232 212 231 225 234 238 237 249
322 322 321 319 318 318 320 322 324 326 327 327 320 318 307 284 275 273 274 235 231 238 222 279 253 196 210 208 208 214 197 213 211 213 219 221 224 227 220 225 223 215 228 227 228 231 241
321 321 315 313 313 316 318 320 322 323 325 329 321 321 303 267 251 229 232 226 227 227 273 238 257 254 213 218 226 209 201 214 214 215 227 223 224 229 224 218 222 214 224 226 240 240 247
321 318 315 314 316 318 320 321 322 321 322 332 320 313 298 279 223 213 228 234 239 257 270 281 267 269 249 215 219 223 212 208 217 217 220 243 260 220 210 224 221 228 215 221 234 239 241
324 320 317 315 313 313 314 316 319 321 321 332 321 304 287 232 192 220 235 245 248 265 275 278 282 271 265 241 240 226 228 232 215 217 214 223 248 248 213 203 222 214 228 234 230 238 246
328 327 326 326 322 314 312 311 313 317 320 336 306 274 300 230 237 239 249 253 260 267 275 275 258 261 270 276 259 257 229 230 235 239 218 213 226 241 249 213 209 220 215 227 238 229 230
326 325 323 322 318 315 316 317 318 314 320 322 298 285 271 270 264 259 266 266 264 262 257 263 268 270 259 261 267 271 270 250 233 223 228 224 216 227 240 247 218 210 224 222 233 251 252
321 317 315 314 312 313 313 314 314 317 312 313 298 298 300 262 246 252 266 273 279 273 267 264 281 279 265 264 256 265 272 277 249 237 99 204 242 218 235 230 229 213 214 221 229 231 240
324 317 312 310 308 305 305 309 310 307 304 298 274 281 307 308 298 336 332 315 305 293 287 308 313 292 319 273 258 256 258 270 266 249 217 226 243 247 220 249 230 233 219 221 223 236 240
324 322 318 313 309 307 302 297 300 296 299 267 262 299 320 301 297 299 280 266 275 288 284 305 281 293 317 304 346 321 329 282 255 250 229 222 230 251 249 231 241 243 231 221 221 226 238
326 322 321 320 311 307 304 296 292 281 276 266 264 284 295 288 290 294 296 293 334 302 274 290 290 286 291 314 322 310 294 287 286 279 258 206 229 227 240 239 242 238 242 239 232 223 229
324 323 317 316 316 309 303 300 286 280 274 260 268 273 274 280 295 294 300 293 298 304 291 281 288 299 262 315 309 315 294 278 265 265 261 214 212 226 235 230 236 239 237 235 255 255 233
322 321 317 313 317 311 304 301 293 285 278 262 265 255 226 267 283 289 288 307 315 306 274 252 270 258 267 293 356 325 291 269 252 250 256 253 203 219 228 233 249 240 232 239 227 247 271
325 323 319 315 313 313 304 299 298 292 277 268 268 253 253 259 261 264 301 300 295 302 314 281 281 267 182 210 112 268 295 305 227 224 253 264 258 227 214 227 215 231 159 118 19 247 5
329 324 320 318 314 311 306 301 296 296 278 271 273 261 243 253 267 276 272 291 304 302 303 306 335 273 203 226 180 208 261 263 281 218 194 228 245 223 223 220 243 105 109 210 200 165 8
341 339 329 325 319 314 313 316 307 297 283 283 271 263 251 236 279 274 266 276 268 244 242 281 326 256 220 218 219 196 244 256 259 276 224 230 226 233 230 218 233 130 158 223 116 315 347
348 348 348 346 339 329 315 315 314 302 297 289 272 277 275 255 261 285 266 260 263 259 275 256 199 257 296 250 149 306 270 308 294 272 260 246 246 240 250 253 287 90 85 108 101 73 35
Wind_Speed_850mb
51 51 50 48 46 45 46 45 43 39 39 40 40 40 39 39 40 41 44 44 42 41 40 38 37 37 35 23 53 36 26 24 28 33 48 48 50 47 40 36 44 33 41 48 13 15 13
52 51 49 49 49 48 46 48 48 48 47 45 44 42 42 41 42 42 43 44 46 42 40 40 35 36 29 37 17 21 25 25 24 33 46 49 45 46 47 43 43 43 28 26 16 17 20
56 56 55 54 52 51 49 46 46 48 47 47 49 49 45 44 46 46 43 44 46 45 41 38 34 33 28 61 19 15 18 26 24 32 45 47 47 43 49 40 50 52 38 16 19 26 16
55 56 57 58 60 60 60 57 51 47 47 47 48 49 48 46 48 50 49 45 45 43 42 38 30 25 28 37 31 38 32 34 31 34 37 41 43 49 49 45 51 43 38 31 37 34 23
52 52 52 54 57 60 61 60 58 55 53 52 50 49 48 48 47 47 47 46 46 41 39 37 19 13 30 20 39 40 40 41 35 35 37 38 43 50 48 35 36 42 34 42 40 25 31
55 54 52 53 55 57 58 61 62 60 57 54 55 53 51 48 47 48 43 39 40 40 31 24 24 17 49 37 30 31 33 39 38 36 39 42 39 30 37 35 33 40 39 37 34 36 35
55 57 61 61 62 62 63 63 62 64 61 58 56 57 52 49 44 43 39 26 20 11 15 32 22 33 26 28 35 31 27 37 41 41 35 47 29 40 50 49 43 45 40 44 29 21 34
55 58 57 56 58 61 64 63 65 64 60 60 59 60 57 48 40 28 19 14 26 24 34 50 72 67 69 26 27 39 31 36 42 38 40 38 48 49 47 50 51 53 52 47 28 38 40
54 55 55 55 58 60 62 56 60 63 64 63 60 60 59 47 28 9 24 35 24 27 25 46 75 79 82 63 57 50 48 48 33 45 46 46 44 46 49 52 54 53 51 45 41 37 46
58 56 55 55 57 60 66 66 65 63 61 61 62 60 57 57 9 16 19 13 17 24 13 23 41 55 68 72 68 70 62 61 42 46 47 48 49 49 54 57 55 52 48 52 48 26 26
55 54 55 55 57 59 61 64 68 67 62 58 56 54 56 32 40 30 15 22 27 16 14 5 37 14 35 65 14 71 76 68 54 51 42 48 52 55 54 62 58 52 51 50 48 41 39
51 50 50 53 56 55 57 62 68 65 60 57 56 50 50 31 29 24 21 30 17 13 22 16 24 26 39 50 52 36 65 70 64 54 53 51 51 55 55 51 58 52 47 48 44 38 35
52 52 53 53 53 53 59 62 62 63 63 64 58 51 41 44 34 9 9 15 13 22 17 28 34 33 44 44 54 33 47 51 44 49 49 51 53 50 50 52 52 57 46 32 35 33 33
55 52 52 52 53 56 60 62 60 62 66 68 61 56 41 36 32 16 20 16 32 25 54 29 25 41 44 45 50 49 42 43 53 49 36 42 41 53 46 57 49 54 54 33 41 35 38
53 51 50 53 58 61 58 56 57 59 66 72 65 51 49 33 37 27 32 30 22 41 34 36 45 37 46 51 49 50 52 46 50 56 47 38 50 40 60 46 53 54 52 55 52 44 35
57 56 56 56 55 51 51 55 54 57 62 63 64 57 46 27 29 40 29 57 37 52 47 42 45 44 52 51 55 52 53 54 50 55 52 49 39 42 46 52 58 59 37 46 41 51 49
54 54 55 53 51 53 52 52 52 53 56 52 46 31 37 8 35 38 35 47 54 85 80 60 57 56 56 50 55 57 56 49 55 51 52 49 44 40 46 53 52 37 44 48 42 40 34
53 53 52 51 51 51 52 52 50 48 51 35 37 18 15 14 30 31 36 55 65 62 81 59 57 63 60 58 53 55 59 55 53 42 52 53 35 38 52 50 56 58 58 54 34 43 38
53 53 54 52 51 51 48 45 43 42 36 32 32 48 54 48 31 31 46 59 61 58 59 64 63 60 52 60 54 58 54 53 58 55 50 40 42 32 48 47 49 60 56 49 52 43 42
56 56 56 55 52 49 47 44 40 35 31 22 19 12 35 43 63 48 46 52 54 68 52 59 47 57 61 56 56 55 54 59 46 45 16 16 35 53 36 43 36 51 60 56 52 36 43
58 58 57 55 52 50 47 43 35 33 30 20 14 16 36 20 37 17 33 45 42 51 52 48 32 38 38 42 52 53 56 59 52 52 28 31 33 42 56 57 50 50 58 58 53 52 45
58 56 55 53 52 50 46 42 37 31 26 23 13 22 30 49 58 45 24 38 41 50 37 38 23 45 40 39 30 33 42 49 48 51 39 45 33 36 47 51 55 48 55 56 59 58 54
58 58 57 54 52 49 44 40 34 29 30 19 28 38 20 28 36 31 34 41 34 45 45 44 36 34 35 32 54 65 68 71 56 43 45 40 33 32 41 50 47 48 51 44 46 48 50
60 59 56 55 52 47 41 38 33 30 34 32 32 24 10 12 28 31 44 43 33 47 30 37 50 9 43 44 61 68 64 56 48 50 50 40 40 31 33 37 48 34 38 48 45 37 39
60 60 56 52 51 43 37 35 33 33 33 39 38 29 14 8 28 35 50 36 45 53 54 42 55 44 28 20 14 26 25 39 42 48 38 30 36 28 29 34 29 38 35 23 18 27 31
57 56 52 48 44 39 32 33 32 31 25 31 39 41 23 9 21 48 33 41 32 33 29 41 46 45 11 10 7 5 8 21 31 31 23 32 9 18 26 35 47 39 13 13 7 17 19
60 53 46 42 36 32 29 30 29 30 25 30 38 29 27 11 37 44 35 31 28 22 18 40 28 13 19 13 11 7 13 23 22 36 21 22 17 25 25 29 29 14 8 11 21 4 14
50 45 38 36 31 26 25 27 29 29 23 25 30 20 37 20 45 51 55 53 48 35 16 18 19 18 17 24 20 15 21 18 24 35 20 15 19 22 22 23 30 29 36 36 8 7 12
43 39 34 30 29 26 24 30 23 17 22 23 29 20 26 41 39 50 47 57 60 53 49 34 16 18 12 7 1 8 14 10 23 24 34 26 28 21 24 21 18 16 22 16 16 15 30
Wind_Direction_850mb
8 7 6 4 0 357 354 350 346 342 337 332 327 324 321 318 314 308 305 303 302 300 300 300 302 301 305 270 257 257 245 261 265 213 205 215 224 229 241 241 253 235 194 234 196 148 212
3 1 1 3 1 358 354 351 348 344 339 336 331 326 324 320 315 309 304 301 299 297 298 298 298 296 294 264 265 223 253 256 220 203 209 215 223 226 242 246 254 251 240 260 246 214 213
356 355 355 356 356 354 353 349 345 343 338 333 330 327 324 321 317 312 308 303 297 295 293 293 295 288 263 248 258 217 233 220 205 208 212 218 226 231 235 254 252 264 270 224 253 260 180
352 350 349 347 347 348 348 347 346 342 338 333 328 324 322 321 317 315 313 308 299 293 289 287 285 274 257 268 260 241 230 224 224 216 219 221 224 240 245 245 257 258 257 254 223 203 182
347 346 343 340 339 338 339 340 341 340 339 336 331 326 323 326 318 313 310 310 304 294 283 280 277 242 268 264 223 228 223 222 219 223 222 221 222 224 237 249 247 243 244 234 251 178 165
342 341 340 338 335 334 333 333 334 333 333 334 331 329 327 327 324 319 315 309 303 291 280 266 223 255 251 229 215 219 213 212 218 210 214 215 221 226 221 227 231 233 230 234 215 205 185
338 338 338 339 337 334 332 331 330 329 329 330 330 326 326 325 326 325 324 331 314 303 227 231 215 218 274 217 225 197 198 204 212 207 207 204 213 215 217 219 230 248 237 231 226 193 207
338 335 334 333 331 330 331 328 327 327 326 325 328 328 326 325 326 323 326 321 329 308 297 258 255 249 249 222 201 205 211 205 211 208 206 209 221 223 218 213 228 244 256 252 222 190 210
336 335 334 337 339 341 342 334 330 329 329 328 326 329 329 326 326 357 311 296 288 317 288 279 240 234 227 232 240 225 214 208 213 217 207 225 217 224 222 218 217 235 244 253 256 195 196
332 333 331 332 332 335 340 343 341 337 330 328 328 329 332 330 325 287 319 323 328 317 279 266 217 231 220 222 234 228 222 214 222 225 227 228 236 212 226 221 220 227 233 252 265 159 214
328 330 330 329 328 329 336 338 339 336 332 328 328 326 325 333 306 295 302 312 313 296 281 109 182 217 198 199 226 212 215 220 227 224 233 231 228 234 213 224 222 232 230 237 255 263 196
322 322 324 325 326 326 328 331 333 331 329 326 325 325 319 321 287 309 316 310 309 239 243 245 149 183 184 201 214 169 193 216 222 227 230 240 232 228 236 216 229 229 239 248 244 252 255
323 320 319 321 322 322 323 325 329 330 328 326 321 317 306 295 270 290 289 255 225 231 236 229 182 192 208 195 212 178 188 201 211 212 223 228 236 235 224 232 212 231 225 234 238 237 249
322 322 321 319 318 318 320 322 324 326 327 327 320 318 307 284 275 273 274 235 231 238 222 279 253 196 210 208 208 214 197 213 211 213 219 221 224 227 220 225 223 215 228 227 228 231 241
321 321 315 313 313 316 318 320 322 323 325 329 321 321 303 267 251 229 232 226 227 227 273 238 257 254 213 218 226 209 201 214 214 215 227 223 224 229 224 218 222 214 224 226 240 240 247
321 318 315 314 316 318 320 321 322 321 322 332 320 313 298 279 223 213 228 234 239 257 270 281 267 269 249 215 219 223 212 208 217 217 220 243 260 220 210 224 221 228 215 221 234 239 241
324 320 317 315 313 313 314 316 319 321 321 332 321 304 287 232 192 220 235 245 248 265 275 278 282 271 265 241 240 226 228 232 215 217 214 223 248 248 213 203 222 214 228 234 230 238 246
328 327 326 326 322 314 312 311 313 317 320 336 306 274 300 230 237 239 249 253 260 267 275 275 258 261 270 276 259 257 229 230 235 239 218 213 226 241 249 213 209 220 215 227 238 229 230
326 325 323 322 318 315 316 317 318 314 320 322 298 285 271 270 264 259 266 266 264 262 257 263 268 270 259 261 267 271 270 250 233 223 228 224 216 227 240 247 218 210 224 222 233 251 252
321 317 315 314 312 313 313 314 314 317 312 313 298 298 300 262 246 252 266 273 279 273 267 264 281 279 265 264 256 265 272 277 249 237 99 204 242 218 235 230 229 213 214 221 229 231 240
324 317 312 310 308 305 305 309 310 307 304 298 274 281 307 308 298 336 332 315 305 293 287 308 313 292 319 273 258 256 258 270 266 249 217 226 243 247 220 249 230 233 219 221 223 236 240
324 322 318 313 309 307 302 297 300 296 299 267 262 299 320 301 297 299 280 266 275 288 284 305 281 293 317 304 346 321 329 282 255 250 229 222 230 251 249 231 241 243 231 221 221 226 238
326 322 321 320 311 307 304 296 292 281 276 266 264 284 295 288 290 294 296 293 334 302 274 290 290 286 291 314 322 310 294 287 286 279 258 206 229 227 240 239 242 238 242 239 232 223 229
324 323 317 316 316 309 303 300 286 280 274 260 268 273 274 280 295 294 300 293 298 304 291 281 288 299 262 315 309 315 294 278 265 265 261 214 212 226 235 230 236 239 237 235 255 255 233
322 321 317 313 317 311 304 301 293 285 278 262 265 255 226 267 283 289 288 307 315 306 274 252 270 258 267 293 356 325 291 269 252 250 256 253 203 219 228 233 249 240 232 239 227 247 271
325 323 319 315 313 313 304 299 298 292 277 268 268 253 253 259 261 264 301 300 295 302 314 281 281 267 182 210 112 268 295 305 227 224 253 264 258 227 214 227 215 231 159 118 19 247 5
329 324 320 318 314 311 306 301 296 296 278 271 273 261 243 253 267 276 272 291 304 302 303 306 335 273 203 226 180 208 261 263 281 218 194 228 245 223 223 220 243 105 109 210 200 165 8
341 339 329 325 319 314 313 316 307 297 283 283 271 263 251 236 279 274 266 276 268 244 242 281 326 256 220 218 219 196 244 256 259 276 224 230 226 233 230 218 233 130 158 223 116 315 347
348 348 348 346 339 329 315 315 314 302 297 289 272 277 275 255 261 285 266 260 263 259 275 256 199 257 296 250 149 306 270 308 294 272 260 246 246 240 250 253 287 90 85 108 101 73 35